Beidou DW 27

operational
NORAD ID: 43108 Int'l Des: 2018-003 Owner: CNSA Country: CN Constellation: BeiDou
MEOCIRCULAR

关于 Beidou DW 27

正在加载描述...

实时位置

正在加载3D地球...

即将过境

高度历史

Altitude vs Time

uPlot chart will show altitude changes over time

两行轨道根数

1 43108U 18003B 26063.05281213 -.00000062 00000-0 00000-0 0 9996
2 43108 54.4138 305.9650 0003019 293.9658 66.0612 1.86230762 55406
Epoch: Mar 4, 2026 • Age: 19 hours

当前状态

高度 21539.5 km
速度 3.78 km/s
星下点 37.73°N, 7.06°E
发射日期 Jan 11, 2018
运行时间 8.1 years
类型 navigation

发射组

Unknown Vehicle • BeiDou Launch 26 • 2 satellites

技术详情

分类 Payload
质量 1014.00 kg
干质量 850.00 kg
总质量 1014.00 kg
长度 2.20 m
直径 1.70 m
跨度 10.00 m
形状 Box + 2 Pan
制造商 SECM
平台类型 BD-3M2
阶段状态 In Orbit
所有者/国家 CNSA/CN

大型星座

Loading constellations...